16.04.2024;21:00;14
16.04.2024;20:00;14
16.04.2024;19:00;14
16.04.2024;18:00;14
16.04.2024;17:00;14
16.04.2024;16:00;8
16.04.2024;15:00;9
16.04.2024;14:00;12
16.04.2024;13:00;10
16.04.2024;12:00;9
16.04.2024;11:00;9
16.04.2024;10:00;9
16.04.2024;09:00;14
16.04.2024;08:00;23
16.04.2024;07:00;11
16.04.2024;06:00;7
16.04.2024;05:00;8
16.04.2024;04:00;7
16.04.2024;03:00;8
16.04.2024;02:00;7
16.04.2024;01:00;6
16.04.2024;00:00;4
15.04.2024;23:00;7
15.04.2024;22:00;6
15.04.2024;21:00;6
15.04.2024;20:00;6
15.04.2024;19:00;7
15.04.2024;18:00;7
15.04.2024;17:00;7
15.04.2024;16:00;7
15.04.2024;15:00;11
15.04.2024;14:00;10
15.04.2024;13:00;11
15.04.2024;12:00;11
15.04.2024;11:00;21
15.04.2024;10:00;24
15.04.2024;09:00;23
15.04.2024;08:00;21
15.04.2024;07:00;13
15.04.2024;06:00;11
15.04.2024;05:00;5
15.04.2024;04:00;5
15.04.2024;03:00;6
15.04.2024;02:00;8
15.04.2024;01:00;9
15.04.2024;00:00;12
14.04.2024;23:00;12
14.04.2024;22:00;11
